GFSNIL_con_3kmhel_162.txt.gz
Helicity
-19 3 4 6 8 8 -4 14 17 -3 1 5 -3 -18 -19 2 -26 -5 21 25 14 20
-3 -11 -19 -31 3 -3 1 28 7 -26 -24 -15 -26 -22 -19 -8 3 -5 42 20 26 19
-1 -3 -10 -26 -23 -17 -14 25 37 17 40 37 4 -46 -40 6 -1 3 2 27 20 17
-5 11 0 -8 -20 -16 -8 5 23 -3 57 17 -21 -40 -39 -14 13 10 10 22 19 9
49 8 -2 -7 -22 24 34 10 15 -16 11 5 -27 -21 -20 0 15 10 0 11 18 4
19 11 -21 13 -9 35 33 35 37 42 28 1 -2 21 17 34 37 25 25 18 6 8
4 62 28 -12 54 60 109 64 66 30 25 -5 -12 29 38 36 29 31 36 28 25 17
53 83 65 22 44 65 116 74 90 72 37 28 37 28 32 32 34 33 28 28 35 28
27 40 60 33 38 47 29 47 61 103 94 71 45 27 29 43 60 55 42 35 35 57
-27 34 1 29 42 33 42 55 24 74 88 99 92 49 34 40 64 72 66 60 79 76
-29 5 64 43 -12 8 10 9 46 39 43 67 79 54 64 51 76 77 57 77 100 107
-10 35 68 18 -39 -3 5 0 -2 64 76 75 72 73 66 85 96 79 61 71 95 133
46 41 24 42 68 75 79 51 45 40 77 67 64 51 62 126 139 113 115 132 138 125
74 58 46 41 59 96 118 105 102 77 84 71 82 69 30 61 137 141 167 201 229 225

GFSNIL_con_3kmhel_165.txt.gz
Helicity
19 39 29 3 -9 3 -7 4 2 3 10 19 15 12 12 3 -16 -53 -35 -29 -15 -9
51 23 29 3 -1 -4 9 10 2 8 13 17 14 5 8 29 25 44 -36 -20 -13 -14
66 70 36 16 4 5 20 30 8 2 21 26 11 1 7 2 -4 16 10 0 -1 9
40 40 53 42 3 -8 18 25 15 3 26 28 25 8 8 -4 -13 -3 13 2 -8 -1
115 83 57 56 31 41 18 31 31 23 36 30 62 8 8 -2 -13 -20 -11 0 -1 3
165 123 76 72 71 44 33 34 38 43 52 58 41 -2 28 3 -13 -10 -13 6 -1 1
181 136 85 64 92 74 50 52 59 63 65 75 56 40 58 34 38 46 -14 20 20 23
94 78 68 67 55 78 55 51 72 83 89 80 70 55 69 71 58 48 35 41 42 29
23 -9 59 69 65 66 71 68 78 83 87 87 78 44 34 68 81 77 61 41 48 48
-55 -6 80 169 113 43 58 66 62 70 86 90 92 69 55 53 76 79 81 69 53 71
10 36 46 -4 72 30 74 80 49 40 43 67 82 77 83 89 98 86 86 89 92 105
37 50 36 41 39 24 84 86 58 44 23 40 67 53 60 90 109 98 92 96 106 117
56 46 48 77 48 72 47 82 55 24 52 47 43 51 31 63 106 88 103 110 101 83
55 49 45 36 51 97 114 14 50 84 60 8 3 34 15 -14 57 123 126 129 120 131

GFSNIL_con_3kmhel_168.txt.gz
Helicity
26 32 32 1 10 28 18 25 18 13 -6 -9 -12 10 8 -16 -16 -14 -5 -2 -7 -7
30 16 29 17 26 27 18 26 24 15 4 7 13 22 25 6 -5 6 -1 1 14 -0
53 37 17 39 26 25 17 5 10 18 13 18 28 30 46 29 7 2 4 9 13 7
31 20 15 -8 -13 24 33 16 16 25 33 20 32 42 57 52 30 13 3 8 3 -2
32 21 16 22 54 56 40 47 36 32 38 37 42 51 59 60 54 39 14 9 14 6
36 88 96 76 82 90 83 65 50 45 38 40 45 52 62 61 64 49 30 24 16 15
86 113 143 114 84 83 88 86 72 56 47 54 57 55 83 70 70 44 38 37 40 9
94 104 64 85 93 66 72 73 85 68 60 71 71 61 67 62 66 64 42 44 45 24
89 84 67 51 83 71 48 61 85 87 73 82 67 51 59 73 65 64 73 65 60 48
64 66 71 36 24 17 47 60 74 82 81 74 82 64 70 77 84 72 73 76 74 67
63 57 -11 27 30 89 99 64 72 82 77 75 76 64 70 71 99 98 91 92 87 86
45 37 26 27 39 68 98 94 95 90 84 73 61 43 43 76 97 94 88 98 101 94
77 57 54 53 51 51 50 50 67 82 86 62 60 74 70 50 70 88 96 75 83 89
78 70 57 42 38 51 67 79 58 72 96 96 104 92 79 51 72 74 65 51 47 79

GFSNIL_con_3kmhel_171.txt.gz
Helicity
14 33 36 26 29 34 23 14 20 -1 -1 -6 -5 4 0 -11 -12 -6 -6 -2 0 4
1 9 28 35 25 21 34 28 28 16 -3 -13 -8 14 27 11 0 2 16 20 8 3
31 -3 14 28 27 21 26 38 20 14 6 -3 -1 15 35 32 17 11 15 21 18 21
36 28 16 18 20 19 28 32 18 1 18 20 14 32 42 38 34 30 16 13 8 14
10 41 33 31 24 27 21 29 30 11 4 24 29 37 31 40 40 44 31 23 18 16
66 36 23 18 21 26 31 35 46 49 31 26 39 38 36 41 40 50 48 42 33 24
66 79 50 29 41 35 34 34 49 50 53 49 45 42 43 47 24 35 47 47 41 38
68 84 91 70 84 93 60 51 42 46 54 56 58 61 54 43 51 52 40 49 47 43
88 104 100 91 100 72 43 53 65 60 55 53 66 76 88 77 63 62 51 48 46 48
72 67 66 75 92 71 70 49 78 70 71 54 51 72 78 81 72 61 55 55 53 53
64 52 41 43 53 74 77 50 56 72 72 58 54 63 63 73 74 75 68 63 55 54
46 47 49 42 32 43 49 34 62 99 78 60 45 59 60 91 82 71 65 67 62 59
85 72 59 54 55 42 26 15 39 66 77 60 50 63 67 92 88 82 85 78 81 86
100 91 83 67 54 36 27 41 37 26 46 75 92 110 123 107 117 114 106 100 98 106